(90847) = 1996 EJ3

Discovered at Kitt Peak on 1996-03-11 by Spacewatch.

Orbit

Orbit type: Main Belt

Note: WebGL enabled browser required.

epoch2024-03-31.0
epoch JD2460400.5
perihelion date2019-03-13.34914
perihelion JD2458555.84915
argument of perihelion (°)219.74654
ascending node (°)356.57786
inclination (°)16.39589
eccentricity0.0805467
perihelion distance (AU)2.8900272
Tisserand w.r.t. Jupiter3.1
ΔV w.r.t. Earth (km/sec)11.7
semimajor axis (AU)3.1432017
mean anomaly (°)326.25703
mean daily motion (°/day)0.17686660
aphelion distance (AU)3.396
period (years)5.57
P-vector [x]-0.80412402
P-vector [y]-0.44787098
P-vector [z]-0.39089148
Q-vector [x]0.59422274
Q-vector [y]-0.62422634
Q-vector [z]-0.50718913
absolute magnitude14.56
phase slope0.15
uncertainty0
referenceE2024-GI3
observations used1049
oppositions18
arc length (days)10259
first opposition used1996
last opposition used2024
residual rms (arc-secs)0.71
perturbers coarse indicatorM-v
perturbers precise indicator003Ek
first observation date used1996-03-11.0
last observation date used2024-04-12.0
computer nameMPCLINUX
JD of orbit computation2456465.539241
perihelion JD uncertainty (days)2.7219E-04
argument of perihelion uncertainty (°)5.1567E-05
ascending node uncertainty (°)1.9405E-05
inclination uncertainty (°)8.8501E-06
eccentricity uncertainty 9.5205E-08
perihelion distance uncertainty (AU)3.0023E-07
Minimum Orbit Intersection Distances (in AU)
for orbit epoch: 2460400.5, reference: E2024-GI3
Mercury2.45352
Venus2.18796
Earth1.90496
Mars1.28311
Jupiter1.62153
Saturn5.94751
Uranus15.455
Neptune26.4872

Observations

1038 total observations over interval: 1996 03 11.21658 – 2024 03 19.960865
These data are available for download (format description).

Date (UT) J2000 RA J2000 Dec Magn Location Ref
1996 03 11.21658 11 34 18.69 +05 27 28.6   691 – Steward Observatory, Kitt Peak-Spacewatch MPC 27027
1996 03 11.23762 11 34 17.50 +05 27 29.4   691 – Steward Observatory, Kitt Peak-Spacewatch MPC 27027
1996 03 11.25846 11 34 16.30 +05 27 30.2 18.3 V 691 – Steward Observatory, Kitt Peak-Spacewatch MPC 27027
1996 03 18.20810 11 27 50.58 +05 31 15.6 18.6 V 691 – Steward Observatory, Kitt Peak-Spacewatch MPC 27027
1996 03 18.22916 11 27 49.41 +05 31 16.0   691 – Steward Observatory, Kitt Peak-Spacewatch MPC 27027
1996 03 18.25054 11 27 48.20 +05 31 16.4   691 – Steward Observatory, Kitt Peak-Spacewatch MPC 27027
1996 03 26.18559 11 20 45.02 +05 32 46.7 18.8 V 691 – Steward Observatory, Kitt Peak-Spacewatch MPC 27027
1996 03 26.20661 11 20 43.92 +05 32 46.8   691 – Steward Observatory, Kitt Peak-Spacewatch MPC 27027
1996 03 26.22919 11 20 42.72 +05 32 46.5   691 – Steward Observatory, Kitt Peak-Spacewatch MPC 27027
2000 12 17.38891 09 03 22.64 +36 57 53.7 19.0   704 – Lincoln Laboratory ETS, New Mexico MPS 27330
2000 12 17.40463 09 03 22.19 +36 57 57.5 19.2   704 – Lincoln Laboratory ETS, New Mexico MPS 27330
2000 12 17.45217 09 03 21.10 +36 58 10.1 19.4   704 – Lincoln Laboratory ETS, New Mexico MPS 27330
2001 01 17.35320 08 40 11.29 +38 48 05.1 19.8   704 – Lincoln Laboratory ETS, New Mexico MPS 27330
2001 01 17.36901 08 40 10.30 +38 48 05.7 18.9   704 – Lincoln Laboratory ETS, New Mexico MPS 27330
2001 01 17.38576 08 40 09.27 +38 48 07.6 19.7   704 – Lincoln Laboratory ETS, New Mexico MPS 27330
2001 01 18.03133 08 39 28.83 +38 49 17.4 18.8 V 493 – Calar Alto MPS 27330
2001 01 18.03940 08 39 28.31 +38 49 18.2   493 – Calar Alto MPS 27330
2001 02 16.24601 08 10 02.62 +38 18 47.5 18.6   704 – Lincoln Laboratory ETS, New Mexico MPS 27330
2001 02 16.26040 08 10 01.77 +38 18 44.2 18.9   704 – Lincoln Laboratory ETS, New Mexico MPS 27330
2001 02 16.28257 08 10 00.79 +38 18 39.5 19.0   704 – Lincoln Laboratory ETS, New Mexico MPS 27330
2001 02 16.29754 08 10 00.03 +38 18 35.2 18.7   704 – Lincoln Laboratory ETS, New Mexico MPS 27330
2001 02 22.288920 08 05 34.532 +37 53 04.92 19.61 V 645 – Apache Point-Sloan Digital Sky Survey MPS 79465
2001 02 22.292392 08 05 34.391 +37 53 03.92 20.35   645 – Apache Point-Sloan Digital Sky Survey MPS 79465
2001 03 18.15112 07 57 38.04 +35 30 27.2 19.5 R 699 – Lowell Observatory-LONEOS MPS 27330
2001 03 18.16212 07 57 38.00 +35 30 23.9   699 – Lowell Observatory-LONEOS MPS 27330
2001 03 18.17307 07 57 37.89 +35 30 19.4   699 – Lowell Observatory-LONEOS MPS 27330
2001 03 18.18400 07 57 37.81 +35 30 13.6   699 – Lowell Observatory-LONEOS MPS 27330
2002 05 04.21092 12 56 22.56 -19 59 30.3 18.4 R 699 – Lowell Observatory-LONEOS MPS 56790
2002 05 04.22527 12 56 21.94 -19 59 27.4   699 – Lowell Observatory-LONEOS MPS 56790
2002 05 04.23968 12 56 21.30 -19 59 25.4   699 – Lowell Observatory-LONEOS MPS 56790
2002 05 04.25406 12 56 20.79 -19 59 24.9   699 – Lowell Observatory-LONEOS MPS 56790
2002 05 15.16362 12 49 37.56 -19 39 02.2 19.2   644 – Palomar Mountain/NEAT MPS 54203
2002 05 15.18481 12 49 36.90 -19 39 00.0 19.0   644 – Palomar Mountain/NEAT MPS 54203
2002 05 15.20564 12 49 36.25 -19 38 57.7 19.0   644 – Palomar Mountain/NEAT MPS 54203
2004 09 09.36279 00 44 13.73 +08 36 14.3 19.1 R 699 – Lowell Observatory-LONEOS MPS 112497
2004 09 09.37575 00 44 13.17 +08 36 13.1   699 – Lowell Observatory-LONEOS MPS 112497
2004 09 09.38870 00 44 12.46 +08 36 13.7   699 – Lowell Observatory-LONEOS MPS 112497
2004 09 09.40164 00 44 11.91 +08 36 13.3   699 – Lowell Observatory-LONEOS MPS 112497
2004 09 10.30348 00 43 33.37 +08 36 15.4 19.8   704 – Lincoln Laboratory ETS, New Mexico MPS 112497
2004 09 10.31493 00 43 32.86 +08 36 15.6 20.6   704 – Lincoln Laboratory ETS, New Mexico MPS 112497
2004 09 10.32640 00 43 32.34 +08 36 15.1 20.0   704 – Lincoln Laboratory ETS, New Mexico MPS 112497
2004 09 13.28465 00 41 21.09 +08 35 49.0 19.3   704 – Lincoln Laboratory ETS, New Mexico MPS 112497
2004 09 13.29603 00 41 20.59 +08 35 49.4 19.5   704 – Lincoln Laboratory ETS, New Mexico MPS 112497
2004 09 13.30741 00 41 20.05 +08 35 48.7 19.3   704 – Lincoln Laboratory ETS, New Mexico MPS 112497
2004 09 13.31879 00 41 19.49 +08 35 48.4 19.7   704 – Lincoln Laboratory ETS, New Mexico MPS 112497
2004 09 13.33018 00 41 19.02 +08 35 48.5 19.4   704 – Lincoln Laboratory ETS, New Mexico MPS 112497
2004 09 18.31858 00 37 23.64 +08 33 15.6 20.9   704 – Lincoln Laboratory ETS, New Mexico MPS 114038
2004 09 18.33105 00 37 22.97 +08 33 15.6 20.1   704 – Lincoln Laboratory ETS, New Mexico MPS 114038
2004 09 18.34361 00 37 22.42 +08 33 15.7 20.5   704 – Lincoln Laboratory ETS, New Mexico MPS 114038
2004 09 18.35603 00 37 21.81 +08 33 14.0 20.5   704 – Lincoln Laboratory ETS, New Mexico MPS 114038
2004 09 22.28635 00 34 07.09 +08 29 47.5 19.4   704 – Lincoln Laboratory ETS, New Mexico MPS 114038
2004 09 22.29851 00 34 06.44 +08 29 45.9 19.9   704 – Lincoln Laboratory ETS, New Mexico MPS 114038
2004 09 22.31065 00 34 05.81 +08 29 45.8 19.6   704 – Lincoln Laboratory ETS, New Mexico MPS 114038
2004 09 22.32278 00 34 05.20 +08 29 45.1 19.9   704 – Lincoln Laboratory ETS, New Mexico MPS 114038
2004 09 22.33494 00 34 04.58 +08 29 44.7 20.0   704 – Lincoln Laboratory ETS, New Mexico MPS 114038
2004 09 24.29955 00 32 25.12 +08 27 36.6 19.6   704 – Lincoln Laboratory ETS, New Mexico MPS 115157
2004 09 24.31172 00 32 24.43 +08 27 35.3 19.7   704 – Lincoln Laboratory ETS, New Mexico MPS 115158
2004 09 24.33613 00 32 23.16 +08 27 33.2 19.4   704 – Lincoln Laboratory ETS, New Mexico MPS 115158
2004 10 10.20192 00 18 52.05 +08 03 08.8 19.2   704 – Lincoln Laboratory ETS, New Mexico MPS 116303
2004 10 10.21292 00 18 51.54 +08 03 08.5 19.7   704 – Lincoln Laboratory ETS, New Mexico MPS 116303
2004 10 10.22453 00 18 50.89 +08 03 06.3 19.4   704 – Lincoln Laboratory ETS, New Mexico MPS 116303
2004 10 10.23571 00 18 50.34 +08 03 04.8 20.0   704 – Lincoln Laboratory ETS, New Mexico MPS 116303
2004 10 10.24741 00 18 49.75 +08 03 03.9 19.8   704 – Lincoln Laboratory ETS, New Mexico MPS 116303
2004 10 12.19256 00 17 14.72 +07 59 35.8 19.2   704 – Lincoln Laboratory ETS, New Mexico MPS 116303
2004 10 12.20361 00 17 14.16 +07 59 35.6 19.6   704 – Lincoln Laboratory ETS, New Mexico MPS 116303
2004 10 12.21468 00 17 13.58 +07 59 33.0 19.9   704 – Lincoln Laboratory ETS, New Mexico MPS 116303
2004 10 12.22575 00 17 13.10 +07 59 32.6 19.5   704 – Lincoln Laboratory ETS, New Mexico MPS 116303
2004 10 12.23683 00 17 12.50 +07 59 31.7 20.1   704 – Lincoln Laboratory ETS, New Mexico MPS 116303
2004 10 21.21800 00 10 24.99 +07 43 47.5 19.8   704 – Lincoln Laboratory ETS, New Mexico MPS 117413
2004 10 21.22986 00 10 24.43 +07 43 47.6 19.7   704 – Lincoln Laboratory ETS, New Mexico MPS 117413
2004 10 21.24171 00 10 23.87 +07 43 45.4 19.8   704 – Lincoln Laboratory ETS, New Mexico MPS 117413
2004 10 21.25358 00 10 23.46 +07 43 44.2 20.0   704 – Lincoln Laboratory ETS, New Mexico MPS 117413
2005 12 22.21838 04 32 58.45 +44 42 18.1 19.5 C 704 – Lincoln Laboratory ETS, New Mexico MPS 294031
2005 12 22.23181 04 32 57.60 +44 42 15.4 20.3   704 – Lincoln Laboratory ETS, New Mexico MPS 156309
2005 12 22.24519 04 32 56.80 +44 42 13.8 20.2   704 – Lincoln Laboratory ETS, New Mexico MPS 156309
2005 12 22.25887 04 32 56.04 +44 42 10.0 20.0   704 – Lincoln Laboratory ETS, New Mexico MPS 156309
2005 12 22.27303 04 32 55.08 +44 42 06.2 20.3   704 – Lincoln Laboratory ETS, New Mexico MPS 156309
2007 01 27.25268 10 58 11.92 +18 34 39.1 19.1 V 703 – Catalina Sky Survey MPS 198519
2007 01 27.26106 10 58 11.67 +18 34 41.5 19.2 V 703 – Catalina Sky Survey MPS 198519
2007 01 27.26946 10 58 11.42 +18 34 42.8 19.2 V 703 – Catalina Sky Survey MPS 198519
2007 01 27.27785 10 58 11.13 +18 34 43.5 18.9 V 703 – Catalina Sky Survey MPS 198519
2007 02 08.40963 10 49 42.02 +18 57 54.0 18.8 V 703 – Catalina Sky Survey MPS 199212
2007 02 08.41601 10 49 41.84 +18 57 53.8 19.6 V 703 – Catalina Sky Survey MPS 199212
2007 02 08.42241 10 49 41.52 +18 57 56.4 18.6 V 703 – Catalina Sky Survey MPS 199212
2007 02 08.42881 10 49 41.19 +18 57 56.0 18.7 V 703 – Catalina Sky Survey MPS 199212
